Grand Marais, MN

3:34 AM CST on January 18, 2017 (GMT -0600)
Grand Marais-Cook County

Weather History for KCKC - April, 2014

Change the Weather History Date:

Monday, April 14, 2014

  Actual Average Record
Temperature  
Mean Temperature 16 °F -  
Max Temperature 24 °F 42 °F 75 °F (2003)
Min Temperature 6 °F 25 °F 3 °F (1998)
Degree Days  
Heating Degree Days 49    
Moisture  
Dew Point 3 °F    
Average Humidity 54    
Maximum Humidity 79    
Minimum Humidity 31    
Precipitation  
Precipitation 0.00 in - - ()
Sea Level Pressure  
Sea Level Pressure 29.91 in    
Wind  
Wind Speed 16 mph (NNW)    
Max Wind Speed 23 mph    
Max Gust Speed 39 mph    
Visibility 10 miles    
Events Snow    
Averages and records for this station are not official NWS values.
T = Trace of Precipitation, MM = Missing Value Source: NWS Daily Summary

Daily Weather History Graph

Daily Weather History Graph

Search for Another Location

Airport or City:

Trip Planner

Search our weather history database for the weather conditions in past years. The results will help you decide how hot, cold, wet, or windy it might be!

Date:

Astronomy

Apr. 14, 2014 Rise Set
Actual Time 6:14 AM CDT 7:50 PM CDT
Civil Twilight 5:41 AM CDT 8:22 PM CDT
Nautical Twilight 5:02 AM CDT 9:02 PM CDT
Astronomical Twilight 4:19 AM CDT 9:45 PM CDT
Moon 7:28 PM CDT (4/14) 5:49 AM CDT (4/14)
Length of Visible Light 14h 40m
Length of Day
13h 36m
Full, 100% of the Moon is Illuminated
Apr 14
Full
Apr 15
Full
Apr 22
Last Quarter
Apr 29
New
May 6
First Quarter

Hourly Weather History & Observations

Time (CDT) Temp. Windchill Dew Point Humidity Pressure Visibility Wind Dir Wind Speed Gust Speed Precip Events Conditions
12:14 AM 24.8 °F 10.3 °F 14.0 °F 64% 29.87 in 10.0 mi NNW 20.7 mph 39.1 mph N/A   Mostly Cloudy
12:33 AM 24.8 °F 12.9 °F 14.0 °F 64% 29.89 in 10.0 mi NNW 13.8 mph 25.3 mph N/A   Mostly Cloudy
12:53 AM 23.0 °F 8.7 °F 14.0 °F 68% 29.89 in 10.0 mi NNW 18.4 mph 29.9 mph N/A   Overcast
1:14 AM 21.2 °F 7.3 °F 12.2 °F 68% 29.90 in 10.0 mi NNW 16.1 mph 33.4 mph N/A   Scattered Clouds
1:33 AM 21.2 °F 5.6 °F 10.4 °F 63% 29.89 in 10.0 mi NNW 20.7 mph 31.1 mph N/A   Clear
1:54 AM 21.2 °F 4.9 °F 10.4 °F 63% 29.88 in 10.0 mi NNW 23.0 mph 33.4 mph N/A   Clear
2:14 AM 19.4 °F 4.5 °F 8.6 °F 63% 29.87 in 10.0 mi NW 17.3 mph 34.5 mph N/A   Scattered Clouds
2:33 AM 19.4 °F 3.2 °F 8.6 °F 63% 29.86 in 10.0 mi NNW 20.7 mph 34.5 mph N/A   Clear
2:54 AM 19.4 °F 4.1 °F 8.6 °F 63% 29.85 in 10.0 mi NNW 18.4 mph 31.1 mph N/A   Clear
3:13 AM 19.4 °F 2.8 °F 8.6 °F 63% 29.84 in 10.0 mi NNW 21.9 mph 31.1 mph N/A   Clear
3:34 AM 17.6 °F 1.3 °F 8.6 °F 68% 29.84 in 10.0 mi NNW 19.6 mph 35.7 mph N/A   Clear
3:53 AM 17.6 °F 0.9 °F 8.6 °F 68% 29.83 in 10.0 mi NW 20.7 mph 28.8 mph N/A   Clear
4:14 AM 17.6 °F 2.2 °F 8.6 °F 68% 29.83 in 10.0 mi NW 17.3 mph 27.6 mph N/A Snow Light Snow
4:34 AM 17.6 °F 0.5 °F 8.6 °F 68% 29.82 in 10.0 mi NNW 21.9 mph 27.6 mph N/A   Clear
4:53 AM 17.6 °F 1.7 °F 8.6 °F 68% 29.82 in 10.0 mi NNW 18.4 mph 32.2 mph N/A Snow Light Snow
5:13 AM 17.6 °F 1.3 °F 6.8 °F 63% 29.83 in 10.0 mi NW 19.6 mph 31.1 mph N/A   Scattered Clouds
5:34 AM 15.8 °F 0.3 °F 5.0 °F 62% 29.82 in 10.0 mi NW 16.1 mph 27.6 mph N/A   Clear
5:54 AM 15.8 °F -1.5 °F 6.8 °F 68% 29.82 in 10.0 mi NW 20.7 mph 29.9 mph N/A   Clear
6:13 AM 15.8 °F -0.2 °F 5.0 °F 62% 29.82 in 10.0 mi NW 17.3 mph 29.9 mph N/A   Clear
6:34 AM 14.0 °F -3.4 °F 3.2 °F 62% 29.83 in 10.0 mi NNW 19.6 mph 32.2 mph N/A   Clear
6:54 AM 14.0 °F -3.0 °F 3.2 °F 62% 29.84 in 10.0 mi NNW 18.4 mph 32.2 mph N/A   Clear
7:13 AM 12.2 °F -4.3 °F 3.2 °F 67% 29.84 in 10.0 mi NW 16.1 mph 28.8 mph N/A   Clear
7:34 AM 14.0 °F -3.4 °F 1.4 °F 57% 29.85 in 10.0 mi NNW 19.6 mph 33.4 mph N/A   Clear
7:54 AM 14.0 °F -4.7 °F 1.4 °F 57% 29.86 in 10.0 mi NW 23.0 mph 33.4 mph N/A   Clear
8:13 AM 14.0 °F -4.7 °F 3.2 °F 62% 29.86 in 10.0 mi NNW 23.0 mph 33.4 mph N/A   Clear
8:34 AM 15.8 °F -1.1 °F 3.2 °F 58% 29.88 in 10.0 mi NNW 19.6 mph 26.5 mph N/A   Clear
8:54 AM 15.8 °F -1.1 °F 3.2 °F 58% 29.89 in 10.0 mi NNW 19.6 mph 28.8 mph N/A   Clear
9:13 AM 15.8 °F -0.6 °F 3.2 °F 58% 29.90 in 10.0 mi NW 18.4 mph 28.8 mph N/A   Clear
9:34 AM 15.8 °F 0.9 °F 3.2 °F 58% 29.90 in 10.0 mi NW 15.0 mph 23.0 mph N/A   Clear
9:53 AM 17.6 °F 3.2 °F 3.2 °F 53% 29.91 in 10.0 mi NNW 15.0 mph 23.0 mph N/A   Clear
10:13 AM 17.6 °F 5.7 °F 3.2 °F 53% 29.92 in 10.0 mi NW 10.4 mph 24.2 mph N/A   Clear
10:34 AM 17.6 °F 0.9 °F 3.2 °F 53% 29.92 in 10.0 mi NNW 20.7 mph 27.6 mph N/A   Clear
10:53 AM 17.6 °F 2.7 °F 3.2 °F 53% 29.92 in 10.0 mi NW 16.1 mph 27.6 mph N/A   Clear
11:13 AM 17.6 °F 2.7 °F 3.2 °F 53% 29.93 in 10.0 mi NNW 16.1 mph 25.3 mph N/A   Clear
11:34 AM 17.6 °F 0.5 °F 3.2 °F 53% 29.92 in 10.0 mi NNW 21.9 mph 29.9 mph N/A   Clear
11:53 AM 19.4 °F 4.5 °F 3.2 °F 49% 29.92 in 10.0 mi North 17.3 mph 29.9 mph N/A   Clear
12:13 PM 19.4 °F 5.0 °F 1.4 °F 46% 29.92 in 10.0 mi NW 16.1 mph 26.5 mph N/A   Clear
12:34 PM 19.4 °F 5.0 °F 1.4 °F 46% 29.93 in 10.0 mi NW 16.1 mph 24.2 mph N/A   Clear
12:53 PM 21.2 °F 6.4 °F -0.4 °F 39% 29.93 in 10.0 mi NNW 18.4 mph 26.5 mph N/A   Clear
1:13 PM 21.2 °F 7.3 °F -0.4 °F 39% 29.93 in 10.0 mi North 16.1 mph 26.5 mph N/A   Clear
1:34 PM 21.2 °F 8.9 °F -0.4 °F 39% 29.93 in 10.0 mi NW 12.7 mph 23.0 mph N/A   Clear
1:53 PM 21.2 °F 8.3 °F -0.4 °F 39% 29.94 in 10.0 mi NW 13.8 mph 26.5 mph N/A   Clear
2:13 PM 21.2 °F 6.4 °F -0.4 °F 39% 29.94 in 10.0 mi North 18.4 mph 24.2 mph N/A   Clear
2:34 PM 21.2 °F 9.5 °F -0.4 °F 39% 29.95 in 10.0 mi NNW 11.5 mph 20.7 mph N/A   Scattered Clouds
2:53 PM 23.0 °F 10.6 °F -0.4 °F 36% 29.95 in 10.0 mi NNW 13.8 mph 20.7 mph N/A   Scattered Clouds
3:13 PM 21.2 °F 11.7 °F -0.4 °F 39% 29.95 in 10.0 mi WNW 8.1 mph 23.0 mph N/A   Scattered Clouds
3:33 PM 23.0 °F 11.7 °F -2.2 °F 33% 29.95 in 10.0 mi NNW 11.5 mph 21.9 mph N/A   Scattered Clouds
3:54 PM 21.2 °F 12.6 °F -2.2 °F 36% 29.95 in 10.0 mi WNW 6.9 mph 18.4 mph N/A   Scattered Clouds
4:13 PM 23.0 °F 13.1 °F -2.2 °F 33% 29.95 in 10.0 mi NW 9.2 mph 18.4 mph N/A   Scattered Clouds
4:33 PM 23.0 °F 10.1 °F -0.4 °F 36% 29.94 in 10.0 mi NNW 15.0 mph 19.6 mph N/A   Mostly Cloudy
4:54 PM 21.2 °F 11.7 °F -0.4 °F 39% 29.95 in 10.0 mi NNW 8.1 mph 20.7 mph N/A   Mostly Cloudy
5:13 PM 23.0 °F 13.1 °F -2.2 °F 33% 29.94 in 10.0 mi WNW 9.2 mph 23.0 mph N/A   Mostly Cloudy
5:33 PM 24.8 °F 13.4 °F -2.2 °F 31% 29.94 in 10.0 mi NW 12.7 mph 18.4 mph N/A   Mostly Cloudy
5:53 PM 19.4 °F 6.6 °F -0.4 °F 42% 29.95 in 10.0 mi NW 12.7 mph 19.6 mph N/A   Scattered Clouds
6:14 PM 21.2 °F 10.1 °F -2.2 °F 36% 29.95 in 10.0 mi NW 10.4 mph 17.3 mph N/A   Scattered Clouds
6:34 PM 19.4 °F 9.5 °F -0.4 °F 42% 29.96 in 10.0 mi NNW 8.1 mph - N/A   Scattered Clouds
6:53 PM 19.4 °F 11.5 °F 1.4 °F 46% 29.96 in 10.0 mi NNW 5.8 mph 18.4 mph N/A   Scattered Clouds
7:14 PM 19.4 °F 8.6 °F -0.4 °F 42% 29.96 in 10.0 mi NNW 9.2 mph 16.1 mph N/A   Mostly Cloudy
7:34 PM 19.4 °F 9.5 °F -0.4 °F 42% 29.97 in 10.0 mi NNW 8.1 mph 18.4 mph N/A   Mostly Cloudy
7:53 PM 17.6 °F 8.2 °F -0.4 °F 45% 29.97 in 10.0 mi NW 6.9 mph - N/A   Scattered Clouds
8:13 PM 17.6 °F 12.3 °F 1.4 °F 49% 29.98 in 10.0 mi North 3.5 mph - N/A   Scattered Clouds
8:33 PM 15.8 °F 10.2 °F 1.4 °F 53% 29.99 in 10.0 mi NNW 3.5 mph - N/A   Clear
8:54 PM 15.8 °F 10.2 °F 1.4 °F 53% 29.99 in 10.0 mi North 3.5 mph - N/A   Clear
9:13 PM 12.2 °F 6.1 °F 1.4 °F 62% 29.99 in 10.0 mi NNW 3.5 mph - N/A   Clear
9:33 PM 10.4 °F 4.0 °F 1.4 °F 67% 29.99 in 10.0 mi NNW 3.5 mph - N/A   Clear
9:53 PM 12.2 °F 6.1 °F 1.4 °F 62% 29.99 in 10.0 mi NNW 3.5 mph - N/A   Clear
10:14 PM 10.4 °F 4.0 °F 1.4 °F 67% 29.98 in 10.0 mi NNW 3.5 mph - N/A   Clear
10:33 PM 10.4 °F - 1.4 °F 67% 29.98 in 10.0 mi Calm Calm - N/A   Clear
10:53 PM 8.6 °F - 1.4 °F 73% 29.98 in 10.0 mi Calm Calm - N/A   Clear
11:13 PM 8.6 °F 2.0 °F 1.4 °F 73% 29.98 in 10.0 mi NW 3.5 mph - N/A   Clear
11:34 PM 8.6 °F 2.0 °F 1.4 °F 73% 29.98 in 10.0 mi NW 3.5 mph - N/A   Clear
11:54 PM 6.8 °F -0.1 °F 1.4 °F 79% 29.97 in 10.0 mi NW 3.5 mph - N/A   Clear